When you browse on this site, cookies collect data to enhance your experience and personalize the content and advertising you see.
Visit our Privacy Policy to learn more. By continuing to use the site, you agree to this use of cookies and data.
  • In Czech Republic
  • List of Countries
  • For 7 days
  • Water Temperature
  • Weather Map
  • Weather Widgets
  • user-avatar
    Login

    Hourly Weather Ryczow

    Today, 27 May, Wednesday

    Time Temperature Precipitation Wind Pressure Humidity
    00:00 +7°C° 0 mm 3 mps 733 mmHg 94%
    01:00 +7°C° 0 mm 3 mps 733 mmHg 95%
    02:00 +7°C° 0 mm 3 mps 733 mmHg 96%
    03:00 +6°C° 0 mm 2 mps 733 mmHg 96%
    04:00 +6°C° 0 mm 2 mps 733 mmHg 97%
    05:00 +7°C° 0 mm 3 mps 733 mmHg 94%
    06:00 +9°C° 0 mm 3 mps 733 mmHg 90%
    07:00 +11°C° 0 mm 3 mps 734 mmHg 87%
    08:00 +12°C° 0.2 mm 4 mps 733 mmHg 81%
    09:00 +13°C° 0.2 mm 4 mps 733 mmHg 75%
    10:00 +14°C° 0.2 mm 5 mps 733 mmHg 69%
    11:00 +15°C° 0.3 mm 5 mps 733 mmHg 66%
    12:00 +16°C° 0.3 mm 5 mps 733 mmHg 64%
    13:00 +16°C° 0.3 mm 5 mps 732 mmHg 61%
    14:00 +16°C° 0.4 mm 5 mps 732 mmHg 63%
    15:00 +16°C° 0.4 mm 5 mps 732 mmHg 65%
    16:00 +15°C° 0.4 mm 5 mps 731 mmHg 66%
    17:00 +14°C° 0.1 mm 4 mps 731 mmHg 72%
    18:00 +13°C° 0.1 mm 3 mps 731 mmHg 77%
    19:00 +12°C° 0.1 mm 3 mps 731 mmHg 82%
    20:00 +12°C° 0 mm 2 mps 731 mmHg 84%
    21:00 +10°C° 0 mm 2 mps 731 mmHg 87%
    22:00 +10°C° 0 mm 1 mps 731 mmHg 89%
    23:00 +10°C° 0 mm 1 mps 730 mmHg 89%

    Tomorrow, 28 May, Thursday

    Time Temperature Precipitation Wind Pressure Humidity
    00:00 +9°C° 0 mm 1 mps 730 mmHg 90%
    01:00 +9°C° 0 mm 1 mps 730 mmHg 90%
    02:00 +8°C° 0 mm 1 mps 730 mmHg 91%
    03:00 +8°C° 0 mm 1 mps 730 mmHg 91%
    04:00 +8°C° 0 mm 1 mps 729 mmHg 91%
    05:00 +9°C° 0 mm 1 mps 729 mmHg 87%
    06:00 +10°C° 0 mm 2 mps 729 mmHg 84%
    07:00 +13°C° 0 mm 2 mps 729 mmHg 80%
    08:00 +13°C° 0.2 mm 2 mps 729 mmHg 75%
    09:00 +13°C° 0.2 mm 3 mps 729 mmHg 71%
    10:00 +14°C° 0.2 mm 3 mps 729 mmHg 67%
    11:00 +14°C° 0.4 mm 4 mps 728 mmHg 70%
    12:00 +13°C° 0.4 mm 4 mps 728 mmHg 74%
    13:00 +13°C° 0.4 mm 5 mps 728 mmHg 77%
    14:00 +13°C° 0.2 mm 5 mps 727 mmHg 78%
    15:00 +13°C° 0.2 mm 5 mps 727 mmHg 78%
    16:00 +12°C° 0.2 mm 5 mps 727 mmHg 79%
    17:00 +12°C° 0.1 mm 4 mps 727 mmHg 80%
    18:00 +11°C° 0.1 mm 3 mps 727 mmHg 82%
    19:00 +11°C° 0.1 mm 3 mps 727 mmHg 83%
    20:00 +10°C° 0 mm 2 mps 727 mmHg 86%
    21:00 +9°C° 0 mm 2 mps 727 mmHg 88%
    22:00 +9°C° 0 mm 2 mps 727 mmHg 90%
    23:00 +8°C° 0 mm 2 mps 727 mmHg 92%

    Day after tomorrow, 29 May, Friday

    Time Temperature Precipitation Wind Pressure Humidity
    00:00 +8°C° 0 mm 2 mps 727 mmHg 94%
    01:00 +8°C° 0 mm 2 mps 727 mmHg 96%
    02:00 +8°C° 0 mm 3 mps 727 mmHg 96%
    03:00 +8°C° 0 mm 3 mps 727 mmHg 97%
    04:00 +8°C° 0 mm 3 mps 727 mmHg 97%
    05:00 +7°C° 0.1 mm 4 mps 727 mmHg 96%
    06:00 +8°C° 0.1 mm 4 mps 727 mmHg 94%
    07:00 +8°C° 0.1 mm 4 mps 727 mmHg 93%
    08:00 +10°C° 0 mm 4 mps 727 mmHg 84%
    09:00 +12°C° 0 mm 5 mps 727 mmHg 76%
    10:00 +13°C° 0 mm 5 mps 727 mmHg 68%
    11:00 +14°C° 0.1 mm 5 mps 727 mmHg 64%
    12:00 +14°C° 0.1 mm 6 mps 727 mmHg 61%
    13:00 +15°C° 0.1 mm 6 mps 727 mmHg 58%
    14:00 +15°C° 0.2 mm 6 mps 726 mmHg 59%
    15:00 +15°C° 0.2 mm 6 mps 726 mmHg 60%
    16:00 +14°C° 0.2 mm 6 mps 726 mmHg 61%
    17:00 +13°C° 0 mm 5 mps 726 mmHg 65%
    18:00 +12°C° 0 mm 5 mps 725 mmHg 69%
    19:00 +11°C° 0 mm 4 mps 725 mmHg 74%
    20:00 +10°C° 0 mm 4 mps 725 mmHg 77%
    21:00 +8°C° 0 mm 4 mps 725 mmHg 80%
    22:00 +7°C° 0 mm 4 mps 726 mmHg 83%
    23:00 +7°C° 0 mm 3 mps 725 mmHg 86%

    30 May, Saturday

    Time Temperature Precipitation Wind Pressure Humidity
    00:00 +5°C° 0 mm 3 mps 725 mmHg 88%
    01:00 +5°C° 0 mm 3 mps 725 mmHg 90%
    02:00 +4°C° 0 mm 3 mps 725 mmHg 90%
    03:00 +4°C° 0 mm 3 mps 725 mmHg 89%
    04:00 +4°C° 0 mm 4 mps 724 mmHg 89%
    05:00 +4°C° 0 mm 4 mps 724 mmHg 85%
    06:00 +5°C° 0 mm 4 mps 724 mmHg 81%
    07:00 +6°C° 0 mm 5 mps 724 mmHg 78%
    08:00 +7°C° 0 mm 5 mps 724 mmHg 76%
    09:00 +8°C° 0 mm 5 mps 724 mmHg 74%
    10:00 +8°C° 0 mm 5 mps 724 mmHg 72%
    11:00 +8°C° 0.2 mm 5 mps 724 mmHg 75%
    12:00 +8°C° 0.2 mm 5 mps 724 mmHg 77%
    13:00 +8°C° 0.2 mm 4 mps 723 mmHg 80%
    14:00 +8°C° 0.2 mm 4 mps 723 mmHg 83%
    15:00 +8°C° 0.2 mm 5 mps 723 mmHg 86%
    16:00 +8°C° 0.2 mm 5 mps 723 mmHg 88%
    17:00 +7°C° 0.1 mm 4 mps 723 mmHg 90%
    18:00 +7°C° 0.1 mm 4 mps 722 mmHg 92%
    19:00 +7°C° 0.1 mm 4 mps 722 mmHg 93%
    20:00 +7°C° 0 mm 4 mps 722 mmHg 94%
    21:00 +7°C° 0 mm 4 mps 722 mmHg 95%
    22:00 +7°C° 0 mm 4 mps 722 mmHg 95%
    23:00 +7°C° 0.1 mm 4 mps 722 mmHg 95%

    31 May, Sunday

    Time Temperature Precipitation Wind Pressure Humidity
    00:00 +7°C° 0.1 mm 4 mps 721 mmHg 96%
    01:00 +7°C° 0.1 mm 5 mps 721 mmHg 96%
    02:00 +7°C° 0.2 mm 5 mps 720 mmHg 96%
    03:00 +7°C° 0.2 mm 5 mps 720 mmHg 96%
    04:00 +7°C° 0.2 mm 5 mps 720 mmHg 96%
    05:00 +7°C° 0.6 mm 5 mps 719 mmHg 96%
    06:00 +7°C° 0.6 mm 5 mps 719 mmHg 96%
    07:00 +8°C° 0.6 mm 5 mps 719 mmHg 96%
    08:00 +8°C° 2.8 mm 5 mps 719 mmHg 97%
    09:00 +8°C° 2.8 mm 5 mps 719 mmHg 97%
    10:00 +8°C° 2.8 mm 5 mps 719 mmHg 97%
    11:00 +8°C° 4.3 mm 5 mps 719 mmHg 97%
    12:00 +9°C° 4.3 mm 5 mps 719 mmHg 97%
    13:00 +9°C° 4.3 mm 5 mps 719 mmHg 97%
    14:00 +10°C° 3.2 mm 4 mps 719 mmHg 97%
    15:00 +10°C° 3.2 mm 4 mps 719 mmHg 97%
    16:00 +11°C° 3.2 mm 3 mps 719 mmHg 98%
    17:00 +11°C° 0.4 mm 3 mps 720 mmHg 97%
    18:00 +11°C° 0.4 mm 3 mps 720 mmHg 97%
    19:00 +11°C° 0.4 mm 4 mps 720 mmHg 97%
    20:00 +11°C° 0 mm 3 mps 720 mmHg 97%
    21:00 +11°C° 0 mm 3 mps 721 mmHg 97%
    22:00 +12°C° 0 mm 2 mps 721 mmHg 97%
    23:00 +10°C° 0 mm 2 mps 721 mmHg 97%

    1 June, Monday

    Time Temperature Precipitation Wind Pressure Humidity
    00:00 +10°C° 0 mm 3 mps 721 mmHg 97%
    01:00 +10°C° 0 mm 3 mps 722 mmHg 97%
    02:00 +9°C° 0 mm 2 mps 722 mmHg 97%
    03:00 +9°C° 0 mm 2 mps 722 mmHg 97%
    04:00 +9°C° 0 mm 2 mps 722 mmHg 97%
    05:00 +10°C° 0 mm 2 mps 723 mmHg 95%
    06:00 +11°C° 0 mm 3 mps 723 mmHg 93%
    07:00 +11°C° 0 mm 3 mps 723 mmHg 91%
    08:00 +13°C° 0 mm 3 mps 724 mmHg 87%
    09:00 +14°C° 0 mm 4 mps 724 mmHg 82%
    10:00 +15°C° 0 mm 4 mps 725 mmHg 78%
    11:00 +15°C° 0.1 mm 4 mps 725 mmHg 78%
    12:00 +15°C° 0.1 mm 4 mps 725 mmHg 79%
    13:00 +16°C° 0.1 mm 5 mps 725 mmHg 80%
    14:00 +16°C° 0.2 mm 5 mps 725 mmHg 78%
    15:00 +16°C° 0.2 mm 5 mps 725 mmHg 77%
    16:00 +17°C° 0.2 mm 5 mps 725 mmHg 76%
    17:00 +16°C° 0 mm 5 mps 725 mmHg 79%
    18:00 +15°C° 0 mm 4 mps 725 mmHg 83%
    19:00 +14°C° 0 mm 4 mps 725 mmHg 86%
    20:00 +13°C° 0 mm 4 mps 725 mmHg 88%
    21:00 +12°C° 0 mm 4 mps 725 mmHg 89%
    22:00 +11°C° 0 mm 4 mps 726 mmHg 91%
    23:00 +10°C° 0 mm 4 mps 726 mmHg 92%
    Show more